Location: Bu�n Treun
(12.1333°N, 108.3167°E)
Time: 00:29:06
(UTC+00:00)

Cosmos 1805 - Pass Details

Date: 13 July 2020
Orbit: 524 x 532 km, 82.5° (Epoch: 03 August)

Event Time Altitude Azimuth Distance (km) Brightness Sun altitude
Exits shadow 21:41:53 - 192° (SSW) 2,292 6.1 -11.5°
Reaches altitude 10° 21:43:09 10° 195° (SSW) 1,775 5.5 -11.2°
Maximum altitude 21:46:59 58° 275° (W) 622 3.3 -10.3°
Drops below altitude 10° 21:50:50 10° 354° (N) 1,773 6.2 -9.5°
Sets 21:52:59 0° 358° (N) 2,661 7.1 -9.0°
